Location: *
(51.8167°N, 12.5000°E)
Time: 09:47:40
(UTC+00:00)

Cosmos 2366 rocket - Pass Details

Date: 16 September 2019
Orbit: 956 x 996 km, 82.9° (Epoch: 15 October)

Event Time Altitude Azimuth Distance (km) Brightness Sun altitude
Rises 19:39:24 0° 349° (N) 3,722 7.7 -20.6°
Reaches altitude 10° 19:41:56 10° 349° (N) 2,772 7.0 -20.9°
Maximum altitude 19:48:19 85° 263° (W) 1,008 4.0 -21.7°
Enters shadow 19:52:03 27° 176° (S) 1,815 5.1 -22.2°
